Theta_e
307 309 310 312 311 314 324 329 340 338 341 340 339 338 337 336 336 335 330 325 323 317 315 314 315 316 316 317 317 316 316 319
306 307 309 310 311 312 320 334 339 340 342 343 342 340 339 337 336 337 335 331 326 323 317 315 315 315 316 316 316 317 316 318
306 307 308 310 311 313 313 319 331 336 339 340 343 340 339 337 336 337 336 335 330 325 321 317 315 315 315 316 316 316 316 318
306 306 307 309 311 313 314 314 318 322 329 338 340 342 341 339 337 334 333 334 333 330 326 322 317 316 316 315 317 317 316 316
305 305 306 307 309 313 315 315 317 317 320 329 331 341 340 339 338 337 334 331 333 335 332 329 322 317 316 317 317 320 316 316
305 304 305 306 307 309 313 315 316 317 319 328 331 335 337 337 338 338 338 337 335 332 333 333 330 322 317 317 320 321 319 316
305 304 304 304 305 307 308 310 312 315 317 320 326 331 334 336 335 337 337 337 336 337 335 332 333 330 322 318 319 323 324 320
305 303 302 303 303 304 306 306 308 310 314 316 318 322 328 329 335 336 336 336 336 337 337 335 332 330 328 322 319 320 325 327
305 304 301 301 300 301 302 304 305 307 309 312 314 317 320 323 327 331 333 335 335 337 337 337 337 333 330 325 322 321 322 327
304 303 301 301 302 300 299 301 302 305 306 308 310 313 316 319 320 324 331 338 336 336 337 336 337 337 336 332 328 326 326 324
303 302 301 300 301 303 300 299 300 301 304 306 307 310 313 316 318 320 322 327 335 337 337 337 336 335 337 336 334 331 331 331
303 301 301 299 300 302 301 298 298 300 301 304 306 307 309 313 315 317 319 322 329 335 337 337 337 338 338 337 336 336 334 333
304 302 299 300 300 301 300 298 297 298 298 301 303 306 307 309 313 315 317 318 323 330 332 334 336 336 338 338 337 336 336 335
304 301 300 299 299 299 299 298 297 297 297 299 301 303 305 306 309 312 314 318 318 322 325 327 332 335 337 337 337 336 336 336
303 301 301 300 299 299 298 297 297 296 296 296 300 302 303 302 304 307 311 313 316 318 320 323 324 325 330 326 328 335 337 337
301 302 301 299 299 299 298 297 297 296 295 295 296 301 302 302 301 304 307 308 312 315 318 320 322 324 324 324 327 325 323 329
301 302 300 299 299 299 298 297 296 295 295 295 296 296 300 302 303 301 304 308 309 312 315 317 320 321 325 323 326 328 324 325
301 301 299 299 299 299 298 297 295 295 294 294 295 296 296 298 301 303 301 305 308 309 311 312 314 315 317 325 324 323 324 325
301 301 299 299 299 298 298 297 295 294 294 294 294 295 295 296 297 297 302 301 305 306 306 308 309 310 313 318 323 327 327 326
Wind_Speed
28 21 16 15 13 11 8 13 19 24 33 38 38 38 41 43 43 42 40 38 36 35 34 32 31 32 32 31 29 28 28 28
29 25 18 13 12 11 9 7 15 21 26 33 37 40 38 40 43 44 43 41 39 38 37 35 34 35 34 32 31 31 30 29
35 29 22 16 16 15 12 8 10 18 24 30 34 38 36 35 41 45 45 43 43 42 41 40 38 37 36 35 35 35 33 33
36 34 26 21 15 16 16 14 8 11 18 28 29 33 37 37 38 43 47 46 47 47 46 44 41 40 40 38 38 39 38 36
33 32 32 26 18 14 15 13 12 9 12 15 28 32 34 39 40 39 42 45 48 49 49 49 45 43 43 41 40 39 41 41
33 30 30 29 24 16 15 15 11 10 9 10 17 23 31 33 36 37 36 39 41 45 49 52 50 48 47 44 42 43 42 43
29 31 27 29 28 23 18 18 17 11 9 7 11 21 27 27 30 34 36 40 40 40 46 51 53 51 50 49 47 45 44 45
27 28 29 27 30 31 25 23 20 18 11 10 9 9 18 25 33 33 36 37 39 39 38 45 50 52 53 53 51 50 49 48
23 23 25 27 27 29 29 28 26 23 19 13 11 12 11 11 19 31 37 40 42 43 42 39 40 49 50 54 54 52 53 52
20 20 20 23 26 29 30 29 30 25 24 21 16 14 14 15 13 15 25 32 39 43 44 43 42 43 46 53 55 54 54 55
20 18 21 23 23 25 28 30 28 29 24 24 23 19 17 17 18 17 17 23 26 34 40 43 46 46 45 47 54 55 56 55
18 19 22 23 22 23 27 30 28 28 28 24 24 25 21 21 20 20 20 20 21 27 29 39 43 47 48 47 46 49 56 56
16 20 21 24 24 24 26 30 31 27 30 29 22 23 25 22 23 21 21 20 20 25 29 28 36 47 46 46 48 47 54 55
17 16 19 22 26 26 27 30 31 30 30 27 28 24 26 25 23 25 22 21 22 23 24 30 36 35 39 44 46 48 50 50
14 17 20 19 24 28 28 30 30 31 31 30 27 28 26 28 26 25 25 23 22 24 27 27 27 32 40 43 50 51 48 51
15 21 21 19 25 28 29 30 31 30 30 29 27 25 24 25 29 25 24 26 23 23 26 25 27 27 33 42 52 50 54 49
17 21 18 18 23 27 30 31 30 29 29 29 28 26 26 25 26 31 23 22 26 23 22 22 23 17 33 40 50 55 50 51
18 21 14 16 20 25 29 30 28 28 30 28 27 27 27 26 25 26 29 22 23 22 21 23 22 18 22 32 39 43 49 51
18 18 12 16 19 24 28 28 27 27 29 28 27 27 27 27 26 24 22 25 21 21 19 20 20 19 27 21 20 27 39 46
Wind_Direction
11 6 348 342 346 347 295 225 257 272 257 245 248 245 245 236 231 229 230 230 227 226 225 223 222 222 220 218 217 217 219 218
12 13 3 333 324 339 344 260 220 230 249 247 242 244 248 243 236 233 231 231 231 231 230 227 225 227 226 224 223 222 220 218
10 10 9 3 342 335 342 339 256 228 229 236 248 251 253 251 241 235 235 235 235 234 235 231 228 228 228 227 227 225 223 220
5 6 6 2 358 338 338 345 339 277 255 237 241 248 256 256 248 242 240 239 237 237 236 236 233 232 232 230 229 229 226 222
6 4 7 359 360 350 339 337 345 326 298 258 234 246 247 255 258 254 248 246 243 240 241 241 237 235 236 233 230 231 229 226
3 0 0 2 357 353 342 343 337 331 330 295 241 242 245 258 265 263 259 256 253 249 245 245 243 240 239 237 234 231 230 229
356 2 2 2 5 359 352 346 342 345 322 316 268 254 250 245 249 262 267 264 261 257 252 247 246 246 244 242 238 237 235 231
349 7 9 8 8 5 5 2 352 341 343 328 323 284 254 254 250 249 255 261 261 259 257 250 247 248 247 247 243 241 238 236
344 357 10 13 13 9 7 7 1 352 339 330 328 319 299 271 254 250 251 259 261 267 265 261 259 252 251 249 249 245 244 241
345 355 2 359 4 9 6 5 6 358 350 337 320 321 310 299 282 266 249 248 258 263 266 268 267 265 257 253 251 250 246 246
346 344 348 349 347 352 2 6 1 4 356 345 338 322 315 303 292 277 263 253 250 257 260 264 269 268 261 254 254 254 252 250
336 340 345 349 344 346 355 1 359 359 3 359 337 335 319 308 298 290 280 268 253 250 259 260 263 265 266 258 257 257 254 254
326 333 345 354 354 350 352 356 357 355 357 359 352 333 330 315 305 299 289 279 268 250 255 254 258 260 259 262 265 260 253 255
326 337 348 349 355 354 351 353 354 355 355 351 355 346 339 336 317 305 300 289 277 267 261 257 255 254 259 258 260 264 261 262
337 345 342 345 352 354 352 351 353 351 350 351 347 350 345 343 335 318 310 302 293 283 274 265 265 260 254 257 257 256 254 261
343 344 346 348 348 354 353 350 348 348 349 349 347 346 347 343 342 328 315 313 306 301 289 282 275 279 275 257 250 250 261 259
336 339 337 342 344 349 349 347 346 346 346 348 348 343 338 348 342 340 333 320 313 308 301 284 278 286 268 271 257 247 245 251
326 328 324 331 337 344 345 344 343 344 346 349 350 350 345 341 343 340 334 332 315 321 325 310 283 283 269 254 258 260 259 261
319 319 312 321 330 337 341 341 340 344 345 350 353 352 349 345 345 341 333 333 335 334 336 328 312 285 275 266 253 263 266 264